CZ-3B R/B (49331 NORAD) Tracking and Keplerian Element Data

This shows tracking and keplerian element data for the satellite.

Feedback or suggestion? Click here.




ElementValue
Catalog49331
NameCZ-3B R/B
Epoch Orbit69
Epoch Day326.42935552
Epoch Year2021
RAAN40.7339
Inclination28.5953
Eccentricity0.7233964
Argument of Perigee197.7521
Mean Anonmoly109.3105
Mean Motion2.32857538
Decay Rate5.095E-05
L11 49331U 21094B 21326.42935552 .00005095 00000+0 22264-2 0 9991
L22 49331 28.5953 40.7339 7233964 197.7521 109.3105 2.32857538 693

Live tracking and technical data element details for CZ-3B R/B (NORAD 49331). CZ-3B R/B can be tracked NOW for your location showing map with azimuth and elevation plus other details from your city location.

Track the satellite on the map from your city or location and see movement details for azimuth, elevation, latitude, longitude, range, height, and movement on the map or in text.







IsCatalogInMostPopularTable: catalog: 49331, numindb: 5
Update: records affected: 1



GetName: 49331 CZ-3B R/B

Hit Count: updated at: Mon, 06 Dec 2021 14:26:13 GMT